owner,sensor,date,latitude,longitude,vertical_datum,sea_water_temperature,qcFlag 
TABS,ioos:station:wmo:42043:1,1995-11-01T00:00:00Z,28.9818,-94.9186,-2.0,23.26,11111222 
TABS,ioos:station:wmo:42043:1,1995-11-01T00:30:00Z,28.9818,-94.9186,-2.0,23.25,11111222 
TABS,ioos:station:wmo:42043:1,1995-11-01T01:00:00Z,28.9818,-94.9186,-2.0,23.26,11111222 
TABS,ioos:station:wmo:42043:1,1995-11-01T01:30:00Z,28.9818,-94.9186,-2.0,23.16,11111222 
TABS,ioos:station:wmo:42043:1,1995-11-01T02:00:00Z,28.9818,-94.9186,-2.0,23.15,11111222 
TABS,ioos:station:wmo:42043:1,1995-11-01T02:30:00Z,28.9818,-94.9186,-2.0,23.06,11111222 
TABS,ioos:station:wmo:42043:1,1995-11-01T03:00:00Z,28.9818,-94.9186,-2.0,23.1,11111222 
TABS,ioos:station:wmo:42043:1,1995-11-01T03:30:00Z,28.9818,-94.9186,-2.0,23.03,11111222 
TABS,ioos:station:wmo:42043:1,1995-11-01T04:00:00Z,28.9818,-94.9186,-2.0,22.98,11111222 
TABS,ioos:station:wmo:42043:1,1995-11-01T04:30:00Z,28.9818,-94.9186,-2.0,23.1,11111222 
TABS,ioos:station:wmo:42043:1,1995-11-01T05:00:00Z,28.9818,-94.9186,-2.0,23.1,11111222 
TABS,ioos:station:wmo:42043:1,1995-11-01T05:30:00Z,28.9818,-94.9186,-2.0,23.02,11111222 
TABS,ioos:station:wmo:42043:1,1995-11-01T06:00:00Z,28.9818,-94.9186,-2.0,23.01,11111222 
TABS,ioos:station:wmo:42043:1,1995-11-01T06:30:00Z,28.9818,-94.9186,-2.0,22.9,11111222 
TABS,ioos:station:wmo:42043:1,1995-11-01T07:00:00Z,28.9818,-94.9186,-2.0,22.84,11111222 
TABS,ioos:station:wmo:42043:1,1995-11-01T07:30:00Z,28.9818,-94.9186,-2.0,22.79,11111222 
TABS,ioos:station:wmo:42043:1,1995-11-01T08:00:00Z,28.9818,-94.9186,-2.0,22.76,11111222 
TABS,ioos:station:wmo:42043:1,1995-11-01T08:30:00Z,28.9818,-94.9186,-2.0,22.76,11111222 
TABS,ioos:station:wmo:42043:1,1995-11-01T09:00:00Z,28.9818,-94.9186,-2.0,22.73,11111222 
TABS,ioos:station:wmo:42043:1,1995-11-01T09:30:00Z,28.9818,-94.9186,-2.0,22.73,11111222 
TABS,ioos:station:wmo:42043:1,1995-11-01T10:00:00Z,28.9818,-94.9186,-2.0,22.74,11111222 
TABS,ioos:station:wmo:42043:1,1995-11-01T10:30:00Z,28.9818,-94.9186,-2.0,22.77,11111222 
TABS,ioos:station:wmo:42043:1,1995-11-01T11:00:00Z,28.9818,-94.9186,-2.0,22.73,11111222 
TABS,ioos:station:wmo:42043:1,1995-11-01T11:30:00Z,28.9818,-94.9186,-2.0,22.73,11111222 
TABS,ioos:station:wmo:42043:1,1995-11-01T12:00:00Z,28.9818,-94.9186,-2.0,22.72,11111222 
TABS,ioos:station:wmo:42043:1,1995-11-01T12:30:00Z,28.9818,-94.9186,-2.0,22.72,11111222 
TABS,ioos:station:wmo:42043:1,1995-11-01T13:00:00Z,28.9818,-94.9186,-2.0,22.74,11111222 
TABS,ioos:station:wmo:42043:1,1995-11-01T13:30:00Z,28.9818,-94.9186,-2.0,22.71,11111222 
TABS,ioos:station:wmo:42043:1,1995-11-01T14:00:00Z,28.9818,-94.9186,-2.0,22.72,11111222 
TABS,ioos:station:wmo:42043:1,1995-11-01T14:30:00Z,28.9818,-94.9186,-2.0,22.77,11111222 
TABS,ioos:station:wmo:42043:1,1995-11-01T15:00:00Z,28.9818,-94.9186,-2.0,22.85,11111222 
TABS,ioos:station:wmo:42043:1,1995-11-01T15:30:00Z,28.9818,-94.9186,-2.0,22.87,11111222 
TABS,ioos:station:wmo:42043:1,1995-11-01T16:00:00Z,28.9818,-94.9186,-2.0,22.89,11111222 
TABS,ioos:station:wmo:42043:1,1995-11-01T16:30:00Z,28.9818,-94.9186,-2.0,22.97,11111222 
TABS,ioos:station:wmo:42043:1,1995-11-01T17:00:00Z,28.9818,-94.9186,-2.0,23.03,11111222 
TABS,ioos:station:wmo:42043:1,1995-11-01T17:30:00Z,28.9818,-94.9186,-2.0,23.11,11111222 
TABS,ioos:station:wmo:42043:1,1995-11-01T18:00:00Z,28.9818,-94.9186,-2.0,23.09,11111222 
TABS,ioos:station:wmo:42043:1,1995-11-01T18:30:00Z,28.9818,-94.9186,-2.0,23.17,11111222 
TABS,ioos:station:wmo:42043:1,1995-11-01T19:00:00Z,28.9818,-94.9186,-2.0,23.11,11111222 
TABS,ioos:station:wmo:42043:1,1995-11-01T19:30:00Z,28.9818,-94.9186,-2.0,23.34,11111222 
TABS,ioos:station:wmo:42043:1,1995-11-01T20:00:00Z,28.9818,-94.9186,-2.0,23.28,11111222 
TABS,ioos:station:wmo:42043:1,1995-11-01T20:30:00Z,28.9818,-94.9186,-2.0,23.36,11111222 
TABS,ioos:station:wmo:42043:1,1995-11-01T21:00:00Z,28.9818,-94.9186,-2.0,23.4,11111222 
TABS,ioos:station:wmo:42043:1,1995-11-01T21:30:00Z,28.9818,-94.9186,-2.0,23.46,11111222 
TABS,ioos:station:wmo:42043:1,1995-11-01T22:00:00Z,28.9818,-94.9186,-2.0,23.28,11111222 
TABS,ioos:station:wmo:42043:1,1995-11-01T22:30:00Z,28.9818,-94.9186,-2.0,23.28,11111222 
TABS,ioos:station:wmo:42043:1,1995-11-01T23:00:00Z,28.9818,-94.9186,-2.0,23.23,11111222 
TABS,ioos:station:wmo:42043:1,1995-11-01T23:30:00Z,28.9818,-94.9186,-2.0,23.38,11111222 
TABS,ioos:station:wmo:42043:1,1995-11-02T00:00:00Z,28.9818,-94.9186,-2.0,23.25,11111222 
TABS,ioos:station:wmo:42043:1,1995-11-02T00:30:00Z,28.9818,-94.9186,-2.0,23.18,11111222 
TABS,ioos:station:wmo:42043:1,1995-11-02T01:00:00Z,28.9818,-94.9186,-2.0,23.11,11111222 
TABS,ioos:station:wmo:42043:1,1995-11-02T01:30:00Z,28.9818,-94.9186,-2.0,23.09,11111222 
TABS,ioos:station:wmo:42043:1,1995-11-02T02:00:00Z,28.9818,-94.9186,-2.0,23.08,11111222 
TABS,ioos:station:wmo:42043:1,1995-11-02T02:30:00Z,28.9818,-94.9186,-2.0,23.08,11111222 
TABS,ioos:station:wmo:42043:1,1995-11-02T03:00:00Z,28.9818,-94.9186,-2.0,23.06,11111222 
TABS,ioos:station:wmo:42043:1,1995-11-02T03:30:00Z,28.9818,-94.9186,-2.0,23.03,11111222 
TABS,ioos:station:wmo:42043:1,1995-11-02T04:00:00Z,28.9818,-94.9186,-2.0,23.07,11111222 
TABS,ioos:station:wmo:42043:1,1995-11-02T04:30:00Z,28.9818,-94.9186,-2.0,23.11,11111222 
TABS,ioos:station:wmo:42043:1,1995-11-02T05:00:00Z,28.9818,-94.9186,-2.0,23.14,11111222 
TABS,ioos:station:wmo:42043:1,1995-11-02T05:30:00Z,28.9818,-94.9186,-2.0,23.19,11111222 
TABS,ioos:station:wmo:42043:1,1995-11-02T06:00:00Z,28.9818,-94.9186,-2.0,23.35,11111222 
TABS,ioos:station:wmo:42043:1,1995-11-02T06:30:00Z,28.9818,-94.9186,-2.0,23.39,11111222 
TABS,ioos:station:wmo:42043:1,1995-11-02T07:00:00Z,28.9818,-94.9186,-2.0,23.45,11111222 
TABS,ioos:station:wmo:42043:1,1995-11-02T07:30:00Z,28.9818,-94.9186,-2.0,23.32,11111222 
TABS,ioos:station:wmo:42043:1,1995-11-02T08:00:00Z,28.9818,-94.9186,-2.0,23.36,11111222 
TABS,ioos:station:wmo:42043:1,1995-11-02T08:30:00Z,28.9818,-94.9186,-2.0,23.39,11111222 
TABS,ioos:station:wmo:42043:1,1995-11-02T09:00:00Z,28.9818,-94.9186,-2.0,23.17,11111222 
TABS,ioos:station:wmo:42043:1,1995-11-02T09:30:00Z,28.9818,-94.9186,-2.0,23.1,11111222 
TABS,ioos:station:wmo:42043:1,1995-11-02T10:00:00Z,28.9818,-94.9186,-2.0,23.05,11111222 
TABS,ioos:station:wmo:42043:1,1995-11-02T10:30:00Z,28.9818,-94.9186,-2.0,23.01,11111222 
TABS,ioos:station:wmo:42043:1,1995-11-02T11:00:00Z,28.9818,-94.9186,-2.0,23.1,11111222 
TABS,ioos:station:wmo:42043:1,1995-11-02T11:30:00Z,28.9818,-94.9186,-2.0,22.94,11111222 
TABS,ioos:station:wmo:42043:1,1995-11-02T12:00:00Z,28.9818,-94.9186,-2.0,23.01,11111222 
TABS,ioos:station:wmo:42043:1,1995-11-02T12:30:00Z,28.9818,-94.9186,-2.0,22.9,11111222 
TABS,ioos:station:wmo:42043:1,1995-11-02T13:00:00Z,28.9818,-94.9186,-2.0,22.9,11111222 
TABS,ioos:station:wmo:42043:1,1995-11-02T13:30:00Z,28.9818,-94.9186,-2.0,22.91,11111222 
TABS,ioos:station:wmo:42043:1,1995-11-02T14:00:00Z,28.9818,-94.9186,-2.0,22.95,11111222 
TABS,ioos:station:wmo:42043:1,1995-11-02T14:30:00Z,28.9818,-94.9186,-2.0,22.97,11111222 
TABS,ioos:station:wmo:42043:1,1995-11-02T15:00:00Z,28.9818,-94.9186,-2.0,23.05,11111222 
TABS,ioos:station:wmo:42043:1,1995-11-02T15:30:00Z,28.9818,-94.9186,-2.0,23.07,11111222 
TABS,ioos:station:wmo:42043:1,1995-11-02T16:00:00Z,28.9818,-94.9186,-2.0,23.16,11111222 
TABS,ioos:station:wmo:42043:1,1995-11-02T16:30:00Z,28.9818,-94.9186,-2.0,23.09,11111222 
TABS,ioos:station:wmo:42043:1,1995-11-02T17:00:00Z,28.9818,-94.9186,-2.0,23.04,11111222 
TABS,ioos:station:wmo:42043:1,1995-11-02T17:30:00Z,28.9818,-94.9186,-2.0,22.91,11111222 
TABS,ioos:station:wmo:42043:1,1995-11-02T18:00:00Z,28.9818,-94.9186,-2.0,22.8,11111222 
TABS,ioos:station:wmo:42043:1,1995-11-02T18:30:00Z,28.9818,-94.9186,-2.0,22.91,11111222 
TABS,ioos:station:wmo:42043:1,1995-11-02T19:00:00Z,28.9818,-94.9186,-2.0,22.9,11111222 
TABS,ioos:station:wmo:42043:1,1995-11-02T19:30:00Z,28.9818,-94.9186,-2.0,23.08,11111222 
TABS,ioos:station:wmo:42043:1,1995-11-02T20:00:00Z,28.9818,-94.9186,-2.0,22.92,11111222 
TABS,ioos:station:wmo:42043:1,1995-11-02T20:30:00Z,28.9818,-94.9186,-2.0,22.99,11111222 
TABS,ioos:station:wmo:42043:1,1995-11-02T21:00:00Z,28.9818,-94.9186,-2.0,23.03,11111222 
TABS,ioos:station:wmo:42043:1,1995-11-02T21:30:00Z,28.9818,-94.9186,-2.0,23.07,11111222 
TABS,ioos:station:wmo:42043:1,1995-11-02T22:00:00Z,28.9818,-94.9186,-2.0,23.09,11111222 
TABS,ioos:station:wmo:42043:1,1995-11-02T22:30:00Z,28.9818,-94.9186,-2.0,23.07,11111222 
TABS,ioos:station:wmo:42043:1,1995-11-02T23:00:00Z,28.9818,-94.9186,-2.0,23.07,11111222 
TABS,ioos:station:wmo:42043:1,1995-11-02T23:30:00Z,28.9818,-94.9186,-2.0,23.16,11111222 
TABS,ioos:station:wmo:42043:1,1995-11-03T00:00:00Z,28.9818,-94.9186,-2.0,23.3,11111222 
TABS,ioos:station:wmo:42043:1,1995-11-03T00:30:00Z,28.9818,-94.9186,-2.0,23.41,11111222 
TABS,ioos:station:wmo:42043:1,1995-11-03T01:00:00Z,28.9818,-94.9186,-2.0,23.32,11111222 
TABS,ioos:station:wmo:42043:1,1995-11-03T01:30:00Z,28.9818,-94.9186,-2.0,23.19,11111222 
TABS,ioos:station:wmo:42043:1,1995-11-03T02:00:00Z,28.9818,-94.9186,-2.0,23.09,11111222 
TABS,ioos:station:wmo:42043:1,1995-11-03T02:30:00Z,28.9818,-94.9186,-2.0,23.03,11111222 
TABS,ioos:station:wmo:42043:1,1995-11-03T03:00:00Z,28.9818,-94.9186,-2.0,23.05,11111222 
TABS,ioos:station:wmo:42043:1,1995-11-03T03:30:00Z,28.9818,-94.9186,-2.0,23.07,11111222 
TABS,ioos:station:wmo:42043:1,1995-11-03T04:00:00Z,28.9818,-94.9186,-2.0,23.05,11111222 
TABS,ioos:station:wmo:42043:1,1995-11-03T04:30:00Z,28.9818,-94.9186,-2.0,23.01,11111222 
TABS,ioos:station:wmo:42043:1,1995-11-03T05:00:00Z,28.9818,-94.9186,-2.0,23.01,11111222 
TABS,ioos:station:wmo:42043:1,1995-11-03T05:30:00Z,28.9818,-94.9186,-2.0,23.0,11111222 
TABS,ioos:station:wmo:42043:1,1995-11-03T06:00:00Z,28.9818,-94.9186,-2.0,22.92,11111222 
TABS,ioos:station:wmo:42043:1,1995-11-03T06:30:00Z,28.9818,-94.9186,-2.0,22.78,11111222 
TABS,ioos:station:wmo:42043:1,1995-11-03T07:00:00Z,28.9818,-94.9186,-2.0,22.69,11111222 
TABS,ioos:station:wmo:42043:1,1995-11-03T07:30:00Z,28.9818,-94.9186,-2.0,22.74,11111222 
TABS,ioos:station:wmo:42043:1,1995-11-03T08:00:00Z,28.9818,-94.9186,-2.0,22.65,11111222 
TABS,ioos:station:wmo:42043:1,1995-11-03T08:30:00Z,28.9818,-94.9186,-2.0,22.56,11111222 
TABS,ioos:station:wmo:42043:1,1995-11-03T09:00:00Z,28.9818,-94.9186,-2.0,22.56,11111222 
TABS,ioos:station:wmo:42043:1,1995-11-03T09:30:00Z,28.9818,-94.9186,-2.0,22.5,11111222 
TABS,ioos:station:wmo:42043:1,1995-11-03T10:00:00Z,28.9818,-94.9186,-2.0,22.46,11111222 
TABS,ioos:station:wmo:42043:1,1995-11-03T10:30:00Z,28.9818,-94.9186,-2.0,22.46,11111222 
TABS,ioos:station:wmo:42043:1,1995-11-03T11:00:00Z,28.9818,-94.9186,-2.0,22.43,11111222 
TABS,ioos:station:wmo:42043:1,1995-11-03T11:30:00Z,28.9818,-94.9186,-2.0,22.44,11111222 
TABS,ioos:station:wmo:42043:1,1995-11-03T12:00:00Z,28.9818,-94.9186,-2.0,22.44,11111222 
TABS,ioos:station:wmo:42043:1,1995-11-03T12:30:00Z,28.9818,-94.9186,-2.0,22.46,11111222 
TABS,ioos:station:wmo:42043:1,1995-11-03T13:00:00Z,28.9818,-94.9186,-2.0,22.47,11111222 
TABS,ioos:station:wmo:42043:1,1995-11-03T13:30:00Z,28.9818,-94.9186,-2.0,22.43,11111222 
TABS,ioos:station:wmo:42043:1,1995-11-03T14:00:00Z,28.9818,-94.9186,-2.0,22.43,11111222 
TABS,ioos:station:wmo:42043:1,1995-11-03T14:30:00Z,28.9818,-94.9186,-2.0,22.43,11111222 
TABS,ioos:station:wmo:42043:1,1995-11-03T15:00:00Z,28.9818,-94.9186,-2.0,22.39,11111222 
TABS,ioos:station:wmo:42043:1,1995-11-03T15:30:00Z,28.9818,-94.9186,-2.0,22.37,11111222 
TABS,ioos:station:wmo:42043:1,1995-11-03T16:00:00Z,28.9818,-94.9186,-2.0,22.36,11111222 
TABS,ioos:station:wmo:42043:1,1995-11-03T16:30:00Z,28.9818,-94.9186,-2.0,22.39,11111222 
TABS,ioos:station:wmo:42043:1,1995-11-03T17:00:00Z,28.9818,-94.9186,-2.0,22.39,11111222 
TABS,ioos:station:wmo:42043:1,1995-11-03T17:30:00Z,28.9818,-94.9186,-2.0,22.37,11111222 
TABS,ioos:station:wmo:42043:1,1995-11-03T18:00:00Z,28.9818,-94.9186,-2.0,22.35,11111222 
TABS,ioos:station:wmo:42043:1,1995-11-03T18:30:00Z,28.9818,-94.9186,-2.0,22.3,11111222 
TABS,ioos:station:wmo:42043:1,1995-11-03T19:00:00Z,28.9818,-94.9186,-2.0,22.25,11111222 
TABS,ioos:station:wmo:42043:1,1995-11-03T19:30:00Z,28.9818,-94.9186,-2.0,22.2,11111222 
TABS,ioos:station:wmo:42043:1,1995-11-03T20:00:00Z,28.9818,-94.9186,-2.0,22.19,11111222 
TABS,ioos:station:wmo:42043:1,1995-11-03T20:30:00Z,28.9818,-94.9186,-2.0,22.2,11111222 
TABS,ioos:station:wmo:42043:1,1995-11-03T21:00:00Z,28.9818,-94.9186,-2.0,22.21,11111222 
TABS,ioos:station:wmo:42043:1,1995-11-03T21:30:00Z,28.9818,-94.9186,-2.0,22.18,11111222 
TABS,ioos:station:wmo:42043:1,1995-11-03T22:00:00Z,28.9818,-94.9186,-2.0,22.17,11111222 
TABS,ioos:station:wmo:42043:1,1995-11-03T22:30:00Z,28.9818,-94.9186,-2.0,22.17,11111222 
TABS,ioos:station:wmo:42043:1,1995-11-03T23:00:00Z,28.9818,-94.9186,-2.0,22.22,11111222 
TABS,ioos:station:wmo:42043:1,1995-11-03T23:30:00Z,28.9818,-94.9186,-2.0,22.25,11111222 
TABS,ioos:station:wmo:42043:1,1995-11-04T00:00:00Z,28.9818,-94.9186,-2.0,22.24,11111222 
TABS,ioos:station:wmo:42043:1,1995-11-04T00:30:00Z,28.9818,-94.9186,-2.0,22.24,11111222 
TABS,ioos:station:wmo:42043:1,1995-11-04T01:00:00Z,28.9818,-94.9186,-2.0,22.29,11111222 
TABS,ioos:station:wmo:42043:1,1995-11-04T01:30:00Z,28.9818,-94.9186,-2.0,22.29,11111222 
TABS,ioos:station:wmo:42043:1,1995-11-04T02:00:00Z,28.9818,-94.9186,-2.0,22.29,11111222 
TABS,ioos:station:wmo:42043:1,1995-11-04T02:30:00Z,28.9818,-94.9186,-2.0,22.27,11111222 
TABS,ioos:station:wmo:42043:1,1995-11-04T03:00:00Z,28.9818,-94.9186,-2.0,22.29,11111222 
TABS,ioos:station:wmo:42043:1,1995-11-04T03:30:00Z,28.9818,-94.9186,-2.0,22.25,11111222 
TABS,ioos:station:wmo:42043:1,1995-11-04T04:00:00Z,28.9818,-94.9186,-2.0,22.27,11111222 
TABS,ioos:station:wmo:42043:1,1995-11-04T04:30:00Z,28.9818,-94.9186,-2.0,22.28,11111222 
TABS,ioos:station:wmo:42043:1,1995-11-04T05:00:00Z,28.9818,-94.9186,-2.0,22.27,11111222 
TABS,ioos:station:wmo:42043:1,1995-11-04T05:30:00Z,28.9818,-94.9186,-2.0,22.25,11111222 
TABS,ioos:station:wmo:42043:1,1995-11-04T06:00:00Z,28.9818,-94.9186,-2.0,22.26,11111222 
TABS,ioos:station:wmo:42043:1,1995-11-04T06:30:00Z,28.9818,-94.9186,-2.0,22.24,11111222 
TABS,ioos:station:wmo:42043:1,1995-11-04T07:00:00Z,28.9818,-94.9186,-2.0,22.26,11111222 
TABS,ioos:station:wmo:42043:1,1995-11-04T07:30:00Z,28.9818,-94.9186,-2.0,22.22,11111222 
TABS,ioos:station:wmo:42043:1,1995-11-04T08:00:00Z,28.9818,-94.9186,-2.0,22.19,11111222 
TABS,ioos:station:wmo:42043:1,1995-11-04T08:30:00Z,28.9818,-94.9186,-2.0,22.2,11111222 
TABS,ioos:station:wmo:42043:1,1995-11-04T09:00:00Z,28.9818,-94.9186,-2.0,22.19,11111222 
TABS,ioos:station:wmo:42043:1,1995-11-04T09:30:00Z,28.9818,-94.9186,-2.0,22.13,11111222 
TABS,ioos:station:wmo:42043:1,1995-11-04T10:00:00Z,28.9818,-94.9186,-2.0,22.12,11111222 
TABS,ioos:station:wmo:42043:1,1995-11-04T10:30:00Z,28.9818,-94.9186,-2.0,22.11,11111222 
TABS,ioos:station:wmo:42043:1,1995-11-04T11:00:00Z,28.9818,-94.9186,-2.0,22.09,11111222 
TABS,ioos:station:wmo:42043:1,1995-11-04T11:30:00Z,28.9818,-94.9186,-2.0,22.07,11111222 
TABS,ioos:station:wmo:42043:1,1995-11-04T12:00:00Z,28.9818,-94.9186,-2.0,22.05,11111222 
TABS,ioos:station:wmo:42043:1,1995-11-04T12:30:00Z,28.9818,-94.9186,-2.0,22.01,11111222 
TABS,ioos:station:wmo:42043:1,1995-11-04T13:00:00Z,28.9818,-94.9186,-2.0,22.0,11111222 
TABS,ioos:station:wmo:42043:1,1995-11-04T13:30:00Z,28.9818,-94.9186,-2.0,21.97,11111222 
TABS,ioos:station:wmo:42043:1,1995-11-04T14:00:00Z,28.9818,-94.9186,-2.0,21.98,11111222 
TABS,ioos:station:wmo:42043:1,1995-11-04T14:30:00Z,28.9818,-94.9186,-2.0,21.97,11111222 
TABS,ioos:station:wmo:42043:1,1995-11-04T15:00:00Z,28.9818,-94.9186,-2.0,21.95,11111222 
TABS,ioos:station:wmo:42043:1,1995-11-04T15:30:00Z,28.9818,-94.9186,-2.0,21.94,11111222 
TABS,ioos:station:wmo:42043:1,1995-11-04T16:00:00Z,28.9818,-94.9186,-2.0,21.97,11111222 
TABS,ioos:station:wmo:42043:1,1995-11-04T16:30:00Z,28.9818,-94.9186,-2.0,22.04,11111222 
TABS,ioos:station:wmo:42043:1,1995-11-04T17:00:00Z,28.9818,-94.9186,-2.0,22.06,11111222 
TABS,ioos:station:wmo:42043:1,1995-11-04T17:30:00Z,28.9818,-94.9186,-2.0,22.1,11111222 
TABS,ioos:station:wmo:42043:1,1995-11-04T18:00:00Z,28.9818,-94.9186,-2.0,22.09,11111222 
TABS,ioos:station:wmo:42043:1,1995-11-04T18:30:00Z,28.9818,-94.9186,-2.0,22.1,11111222 
TABS,ioos:station:wmo:42043:1,1995-11-04T19:00:00Z,28.9818,-94.9186,-2.0,22.11,11111222 
TABS,ioos:station:wmo:42043:1,1995-11-04T19:30:00Z,28.9818,-94.9186,-2.0,22.13,11111222 
TABS,ioos:station:wmo:42043:1,1995-11-04T20:00:00Z,28.9818,-94.9186,-2.0,22.12,11111222 
TABS,ioos:station:wmo:42043:1,1995-11-04T20:30:00Z,28.9818,-94.9186,-2.0,22.1,11111222 
TABS,ioos:station:wmo:42043:1,1995-11-04T21:00:00Z,28.9818,-94.9186,-2.0,22.07,11111222 
TABS,ioos:station:wmo:42043:1,1995-11-04T21:30:00Z,28.9818,-94.9186,-2.0,22.06,11111222 
TABS,ioos:station:wmo:42043:1,1995-11-04T22:00:00Z,28.9818,-94.9186,-2.0,22.05,11111222 
TABS,ioos:station:wmo:42043:1,1995-11-04T22:30:00Z,28.9818,-94.9186,-2.0,22.02,11111222 
TABS,ioos:station:wmo:42043:1,1995-11-04T23:00:00Z,28.9818,-94.9186,-2.0,21.99,11111222 
TABS,ioos:station:wmo:42043:1,1995-11-04T23:30:00Z,28.9818,-94.9186,-2.0,21.95,11111222 
TABS,ioos:station:wmo:42043:1,1995-11-05T00:00:00Z,28.9818,-94.9186,-2.0,21.95,11111222 
TABS,ioos:station:wmo:42043:1,1995-11-05T00:30:00Z,28.9818,-94.9186,-2.0,21.91,11111222 
TABS,ioos:station:wmo:42043:1,1995-11-05T01:00:00Z,28.9818,-94.9186,-2.0,21.88,11111222 
TABS,ioos:station:wmo:42043:1,1995-11-05T01:30:00Z,28.9818,-94.9186,-2.0,21.79,11111222 
TABS,ioos:station:wmo:42043:1,1995-11-05T02:00:00Z,28.9818,-94.9186,-2.0,21.77,11111222 
TABS,ioos:station:wmo:42043:1,1995-11-05T02:30:00Z,28.9818,-94.9186,-2.0,21.75,11111222 
TABS,ioos:station:wmo:42043:1,1995-11-05T03:00:00Z,28.9818,-94.9186,-2.0,21.75,11111222 
TABS,ioos:station:wmo:42043:1,1995-11-05T03:30:00Z,28.9818,-94.9186,-2.0,21.71,11111222 
TABS,ioos:station:wmo:42043:1,1995-11-05T04:00:00Z,28.9818,-94.9186,-2.0,21.72,11111222 
TABS,ioos:station:wmo:42043:1,1995-11-05T04:30:00Z,28.9818,-94.9186,-2.0,21.75,11111222 
TABS,ioos:station:wmo:42043:1,1995-11-05T05:00:00Z,28.9818,-94.9186,-2.0,21.78,11111222 
TABS,ioos:station:wmo:42043:1,1995-11-05T05:30:00Z,28.9818,-94.9186,-2.0,21.83,11111222 
TABS,ioos:station:wmo:42043:1,1995-11-05T06:00:00Z,28.9818,-94.9186,-2.0,21.81,11111222 
TABS,ioos:station:wmo:42043:1,1995-11-05T06:30:00Z,28.9818,-94.9186,-2.0,21.83,11111222 
TABS,ioos:station:wmo:42043:1,1995-11-05T07:00:00Z,28.9818,-94.9186,-2.0,21.81,11111222 
TABS,ioos:station:wmo:42043:1,1995-11-05T07:30:00Z,28.9818,-94.9186,-2.0,21.74,11111222 
TABS,ioos:station:wmo:42043:1,1995-11-05T08:00:00Z,28.9818,-94.9186,-2.0,21.73,11111222 
TABS,ioos:station:wmo:42043:1,1995-11-05T08:30:00Z,28.9818,-94.9186,-2.0,21.72,11111222 
TABS,ioos:station:wmo:42043:1,1995-11-05T09:00:00Z,28.9818,-94.9186,-2.0,21.71,11111222 
TABS,ioos:station:wmo:42043:1,1995-11-05T09:30:00Z,28.9818,-94.9186,-2.0,21.7,11111222 
TABS,ioos:station:wmo:42043:1,1995-11-05T10:00:00Z,28.9818,-94.9186,-2.0,21.63,11111222 
TABS,ioos:station:wmo:42043:1,1995-11-05T10:30:00Z,28.9818,-94.9186,-2.0,21.55,11111222 
TABS,ioos:station:wmo:42043:1,1995-11-05T11:00:00Z,28.9818,-94.9186,-2.0,21.5,11111222 
TABS,ioos:station:wmo:42043:1,1995-11-05T11:30:00Z,28.9818,-94.9186,-2.0,21.41,11111222 
TABS,ioos:station:wmo:42043:1,1995-11-05T12:00:00Z,28.9818,-94.9186,-2.0,21.36,11111222 
TABS,ioos:station:wmo:42043:1,1995-11-05T12:30:00Z,28.9818,-94.9186,-2.0,21.34,11111222 
TABS,ioos:station:wmo:42043:1,1995-11-05T13:00:00Z,28.9818,-94.9186,-2.0,21.33,11111222 
TABS,ioos:station:wmo:42043:1,1995-11-05T13:30:00Z,28.9818,-94.9186,-2.0,21.3,11111222 
TABS,ioos:station:wmo:42043:1,1995-11-05T14:00:00Z,28.9818,-94.9186,-2.0,21.28,11111222 
TABS,ioos:station:wmo:42043:1,1995-11-05T14:30:00Z,28.9818,-94.9186,-2.0,21.21,11111222 
TABS,ioos:station:wmo:42043:1,1995-11-05T15:00:00Z,28.9818,-94.9186,-2.0,21.22,11111222 
TABS,ioos:station:wmo:42043:1,1995-11-05T15:30:00Z,28.9818,-94.9186,-2.0,21.17,11111222 
TABS,ioos:station:wmo:42043:1,1995-11-05T16:00:00Z,28.9818,-94.9186,-2.0,21.18,11111222 
TABS,ioos:station:wmo:42043:1,1995-11-05T16:30:00Z,28.9818,-94.9186,-2.0,21.16,11111222 
TABS,ioos:station:wmo:42043:1,1995-11-05T17:00:00Z,28.9818,-94.9186,-2.0,21.15,11111222 
TABS,ioos:station:wmo:42043:1,1995-11-05T17:30:00Z,28.9818,-94.9186,-2.0,21.1,11111222 
TABS,ioos:station:wmo:42043:1,1995-11-05T18:00:00Z,28.9818,-94.9186,-2.0,21.11,11111222 
TABS,ioos:station:wmo:42043:1,1995-11-05T18:30:00Z,28.9818,-94.9186,-2.0,21.07,11111222 
TABS,ioos:station:wmo:42043:1,1995-11-05T19:00:00Z,28.9818,-94.9186,-2.0,21.06,11111222 
TABS,ioos:station:wmo:42043:1,1995-11-05T19:30:00Z,28.9818,-94.9186,-2.0,21.05,11111222 
TABS,ioos:station:wmo:42043:1,1995-11-05T20:00:00Z,28.9818,-94.9186,-2.0,21.04,11111222 
TABS,ioos:station:wmo:42043:1,1995-11-05T20:30:00Z,28.9818,-94.9186,-2.0,21.03,11111222 
TABS,ioos:station:wmo:42043:1,1995-11-05T21:00:00Z,28.9818,-94.9186,-2.0,21.04,11111222 
TABS,ioos:station:wmo:42043:1,1995-11-05T21:30:00Z,28.9818,-94.9186,-2.0,21.01,11111222 
TABS,ioos:station:wmo:42043:1,1995-11-05T22:00:00Z,28.9818,-94.9186,-2.0,21.0,11111222 
TABS,ioos:station:wmo:42043:1,1995-11-05T22:30:00Z,28.9818,-94.9186,-2.0,20.97,11111222 
TABS,ioos:station:wmo:42043:1,1995-11-05T23:00:00Z,28.9818,-94.9186,-2.0,20.97,11111222 
TABS,ioos:station:wmo:42043:1,1995-11-05T23:30:00Z,28.9818,-94.9186,-2.0,20.93,11111222 
TABS,ioos:station:wmo:42043:1,1995-11-06T00:00:00Z,28.9818,-94.9186,-2.0,20.94,11111222 
TABS,ioos:station:wmo:42043:1,1995-11-06T00:30:00Z,28.9818,-94.9186,-2.0,20.93,11111222 
TABS,ioos:station:wmo:42043:1,1995-11-06T01:00:00Z,28.9818,-94.9186,-2.0,20.92,11111222 
TABS,ioos:station:wmo:42043:1,1995-11-06T01:30:00Z,28.9818,-94.9186,-2.0,20.91,11111222 
TABS,ioos:station:wmo:42043:1,1995-11-06T02:00:00Z,28.9818,-94.9186,-2.0,20.89,11111222 
TABS,ioos:station:wmo:42043:1,1995-11-06T02:30:00Z,28.9818,-94.9186,-2.0,20.89,11111222 
TABS,ioos:station:wmo:42043:1,1995-11-06T03:00:00Z,28.9818,-94.9186,-2.0,20.88,11111222 
TABS,ioos:station:wmo:42043:1,1995-11-06T03:30:00Z,28.9818,-94.9186,-2.0,20.88,11111222 
TABS,ioos:station:wmo:42043:1,1995-11-06T04:00:00Z,28.9818,-94.9186,-2.0,20.88,11111222 
TABS,ioos:station:wmo:42043:1,1995-11-06T04:30:00Z,28.9818,-94.9186,-2.0,20.89,11111222 
TABS,ioos:station:wmo:42043:1,1995-11-06T05:00:00Z,28.9818,-94.9186,-2.0,20.9,11111222 
TABS,ioos:station:wmo:42043:1,1995-11-06T05:30:00Z,28.9818,-94.9186,-2.0,20.91,11111222 
TABS,ioos:station:wmo:42043:1,1995-11-06T06:00:00Z,28.9818,-94.9186,-2.0,20.91,11111222 
TABS,ioos:station:wmo:42043:1,1995-11-06T06:30:00Z,28.9818,-94.9186,-2.0,20.93,11111222 
TABS,ioos:station:wmo:42043:1,1995-11-06T07:00:00Z,28.9818,-94.9186,-2.0,20.93,11111222 
TABS,ioos:station:wmo:42043:1,1995-11-06T07:30:00Z,28.9818,-94.9186,-2.0,20.94,11111222 
TABS,ioos:station:wmo:42043:1,1995-11-06T08:00:00Z,28.9818,-94.9186,-2.0,20.95,11111222 
TABS,ioos:station:wmo:42043:1,1995-11-06T08:30:00Z,28.9818,-94.9186,-2.0,20.94,11111222 
TABS,ioos:station:wmo:42043:1,1995-11-06T09:00:00Z,28.9818,-94.9186,-2.0,20.94,11111222 
TABS,ioos:station:wmo:42043:1,1995-11-06T09:30:00Z,28.9818,-94.9186,-2.0,20.94,11111222 
TABS,ioos:station:wmo:42043:1,1995-11-06T10:00:00Z,28.9818,-94.9186,-2.0,20.94,11111222 
TABS,ioos:station:wmo:42043:1,1995-11-06T10:30:00Z,28.9818,-94.9186,-2.0,20.94,11111222 
TABS,ioos:station:wmo:42043:1,1995-11-06T11:00:00Z,28.9818,-94.9186,-2.0,20.93,11111222 
TABS,ioos:station:wmo:42043:1,1995-11-06T11:30:00Z,28.9818,-94.9186,-2.0,20.92,11111222 
TABS,ioos:station:wmo:42043:1,1995-11-06T12:00:00Z,28.9818,-94.9186,-2.0,20.91,11111222 
TABS,ioos:station:wmo:42043:1,1995-11-06T12:30:00Z,28.9818,-94.9186,-2.0,20.9,11111222 
TABS,ioos:station:wmo:42043:1,1995-11-06T13:00:00Z,28.9818,-94.9186,-2.0,20.88,11111222 
TABS,ioos:station:wmo:42043:1,1995-11-06T13:30:00Z,28.9818,-94.9186,-2.0,20.88,11111222 
TABS,ioos:station:wmo:42043:1,1995-11-06T14:00:00Z,28.9818,-94.9186,-2.0,20.86,11111222 